Regional Weather Roundup
Issued by NWS

Home | Current Version | Previous Version | Text Only | Print | Product List | Glossary Off
Versions: 1 2 3 4 5 6 7 8 9 10 11 12 13 14 15 16 17 18 19 20 21 22 23 24 25 26 27 28 29 30 31 32 33 34 35 36 37 38 39 40 41 42 43 44 45 46 47 48 49 50

000
ASUS43 KFSD 231502
RWRSD

WEATHER ROUNDUP FOR SOUTH DAKOTA
NATIONAL WEATHER SERVICE SIOUX FALLS SD
1000 AM CDT MON APR 23 2018

NOTE: "FAIR" INDICATES FEW OR NO CLOUDS BELOW 12,000 FEET WITH NO
SIGNIFICANT WEATHER AND/OR OBSTRUCTIONS TO VISIBILITY.


SDZ001>005-009-010-012>017-231600-
NORTHWEST AND NORTH CENTRAL SOUTH DAKOTA

CITY           SKY/WX    TMP DP  RH WIND       PRES   REMARKS
BUFFALO          N/A     51  36  56 NE18      30.07R
FAITH            N/A     52  42  69 E8        30.12F
MOBRIDGE       SUNNY     53  39  59 SE8       30.14S
$$

SDZ012>016-024>037-041>051-057-063-072>074-231600-
SOUTHWEST AND SOUTH CENTRAL SOUTH DAKOTA

CITY           SKY/WX    TMP DP  RH WIND       PRES   REMARKS
RAPID CTY ARPT SUNNY     49  41  74 VRB3      30.09S
PIERRE         SUNNY     53  41  63 SE7       30.15S
CUSTER         SUNNY     52  35  52 SE8       30.10S
PHILIP         SUNNY     54  42  64 E6        30.12S
PINE RIDGE     SUNNY     55  40  56 S13       30.11S
SPEARFISH      FAIR      50  37  62 VRB5      30.10S
WINNER         FAIR      58  40  51 S8        30.17S
$$

SDZ004>011-016>023-039-040-231600-
NORTHEAST SOUTH DAKOTA

CITY           SKY/WX    TMP DP  RH WIND       PRES   REMARKS
ABERDEEN       SUNNY     53  42  66 S7        30.20F
WATERTOWN      SUNNY     51  39  63 S5        30.20F
BROOKINGS      SUNNY     52  38  58 S5        30.22S
SISSETON         N/A     59  41  51 VRB7      30.19S
$$

SDZ017-020-022-023-036>040-048>070-231600-
SOUTHEAST SOUTH DAKOTA

CITY           SKY/WX    TMP DP  RH WIND       PRES   REMARKS
SIOUX FALLS    MOSUNNY   56  34  43 VRB5      30.21F
HURON            N/A     51  41  68 S6        30.19S
CHAMBERLAIN    SUNNY     56  43  62 CALM      30.18S
MITCHELL       SUNNY     53  42  66 S5        30.20S
YANKTON        SUNNY     52  43  71 E6        30.20F
$$

ABBREVIATIONS USED IN REMARKS
   TC - TEMPERATURE IN CELSIUS
  WCI - WIND CHILL INDEX
   HX - HEAT INDEX
  VSB - VISIBILITY





USA.gov is the U.S. government's official web portal to all federal, state and local government web resources and services.